Retour au catalogue

TRANSIT 4A

ActifNavigationLEO
NORAD 116·PAYLOAD·🇺🇸 United States

Lancé Jun 29, 1961 depuis Cape Canaveral Space Force Station

Loading…

Prochains Passages (prochaines 24 heures)

TLE

FraisSource: Space-Track

Époque: Sep 14, 2026, 07:51 UTC

1 00116U 61015A   26257.32773907  .00000012  00000-0  67501-4 0  9997
2 00116  66.8109  32.6981 0079199 214.6228 144.9681 13.92344137309113

Suivez TRANSIT 4A en temps réel avec AllMySat

Download on the App Store